FW4072 Weather Reports


Display with metric or nautical units.
time (UTC)temp
F
wind
direction
speed
MPH
gust
MPH
rain 1hr
in
rain 24hr
in
rain mn
in
humidity
%
barometer
mb
20260906055200 64 135 1.0 2.0 0.00 0.18 0.00 82 1019.4
20260906054316 63 0.0 2.0 0.00 0.18 0.00 84 1019.5
20260906053355 62 0.0 2.0 0.00 0.18 0.00 86 1019.5
20260906052456 61 0.0 1.0 0.00 0.18 0.00 88 1019.2
20260906051614 60 0.0 2.0 0.00 0.18 0.00 90 1019.3
20260906050652 60 0.0 0.0 0.00 0.18 0.00 90 1019.5
20260906044851 58 0.0 2.0 0.00 0.18 0.00 91 1019.1
20260906043051 58 0.0 0.0 0.00 0.18 0.00 90 1018.9
20260906042149 58 0.0 0.0 0.00 0.18 0.00 90 1019.1
20260906041248 58 0.0 0.0 0.00 0.18 0.00 90 1019.1
20260906040342 58 0.0 0.0 0.00 0.18 0.00 90 1018.9
20260906035441 58 0.0 1.0 0.00 0.18 0.00 90 1018.9
20260906034540 57 0.0 1.0 0.00 0.18 0.00 90 1019.0
20260906033700 57 0.0 0.0 0.00 0.18 0.00 90 1018.9
20260906032739 57 0.0 1.0 0.00 0.18 0.00 90 1018.8
20260906031920 57 0.0 0.0 0.00 0.18 0.00 89 1018.6
20260906030038 57 0.0 0.0 0.00 0.18 0.00 89 1018.7
20260906025138 58 0.0 0.0 0.00 0.18 0.00 89 1018.5
20260906024236 58 0.0 0.0 0.00 0.18 0.00 89 1018.4
20260906023330 58 0.0 0.0 0.00 0.18 0.00 89 1018.3
20260906022429 58 0.0 0.0 0.00 0.18 0.00 89 1018.5
20260906021528 58 0.0 0.0 0.00 0.18 0.00 88 1018.4
20260906020627 58 0.0 0.0 0.00 0.18 0.00 88 1018.4
20260906015729 59 0.0 0.0 0.00 0.18 0.00 88 1018.6
20260906014826 59 0.0 0.0 0.00 0.18 0.00 88 1018.5
20260906013025 60 0.0 0.0 0.00 0.18 0.00 88 1018.5
20260906012126 60 0.0 1.0 0.00 0.18 0.00 88 1018.5
20260906011224 60 0.0 0.0 0.00 0.18 0.00 88 1018.6
20260906010323 60 0.0 0.0 0.00 0.18 0.00 88 1018.7
20260906005313 61 0.0 0.0 0.00 0.18 0.00 88 1018.6
20260906004413 61 0.0 0.0 0.00 0.18 0.00 89 1018.5
20260906003532 61 0.0 1.0 0.00 0.18 0.00 89 1018.6
20260906002613 61 0.0 0.0 0.00 0.18 0.00 89 1018.6
20260906001711 61 0.0 0.0 0.00 0.18 0.00 89 1018.7
20260906000810 61 0.0 0.0 0.00 0.18 0.00 89 1018.9
20260905235931 61 0.0 1.0 0.00 0.18 0.00 89 1018.7
20260905234108 61 0.0 0.0 0.00 0.18 0.00 89 1018.7
20260905233207 61 0.0 1.0 0.00 0.18 0.00 89 1018.7
20260905232308 61 0.0 1.0 0.00 0.18 0.00 89 1018.7
20260905231408 61 0.0 0.0 0.00 0.18 0.00 89 1018.6
20260905230507 61 0.0 0.0 0.00 0.18 0.00 89 1018.6
20260905225604 61 0.0 0.0 0.00 0.18 0.00 89 1018.7
20260905224704 61 0.0 0.0 0.00 0.18 0.00 89 1018.7
20260905223805 62 0.0 1.0 0.00 0.18 0.00 89 1018.7
20260905222902 62 0.0 0.0 0.00 0.18 0.00 88 1018.5
20260905221101 62 0.0 2.0 0.00 0.18 0.00 88 1018.6
20260905220200 62 0.0 0.0 0.00 0.18 0.00 88 1018.5
20260905215259 62 0.0 1.0 0.00 0.18 0.00 88 1018.5
20260905214359 62 0.0 0.0 0.00 0.18 0.00 88 1018.5
20260905213458 62 0.0 0.0 0.00 0.18 0.00 88 1018.5
20260905212618 62 0.0 0.0 0.00 0.18 0.00 88 1018.3
20260905211657 62 0.0 0.0 0.00 0.18 0.00 87 1017.9
20260905210756 62 0.0 0.0 0.01 0.18 0.00 87 1017.8
20260905205855 63 0.0 1.0 0.01 0.18 0.18 87 1017.9
20260905204056 63 0.0 0.0 0.04 0.18 0.18 86 1017.4
20260905203155 63 0.0 0.0 0.07 0.18 0.18 86 1017.8
20260905202253 63 0.0 0.0 0.07 0.18 0.18 85 1018.0
20260905201354 63 0.0 0.0 0.07 0.18 0.18 85 1017.6
20260905200451 64 0.0 0.0 0.06 0.17 0.17 85 1017.6
20260905195551 64 0.0 0.0 0.06 0.17 0.17 84 1018.0
20260905194650 64 0.0 2.0 0.07 0.14 0.14 84 1018.2
20260905193749 64 0.0 1.0 0.05 0.11 0.11 83 1018.7
20260905192849 64 0.0 1.0 0.05 0.11 0.11 81 1017.3
20260905191048 64 0.0 0.0 0.11 0.11 0.11 79 1017.3
20260905190207 65 0.0 0.0 0.11 0.11 0.11 78 1017.1
20260905185247 65 0.0 0.0 0.11 0.11 0.11 76 1017.0
20260905184346 66 0.0 2.0 0.07 0.07 0.07 73 1017.2
20260905183507 67 0.0 2.0 0.06 0.06 0.06 70 1017.0
20260905182544 69 0.0 1.0 0.06 0.06 0.06 64 1017.3
20260905181644 71 113 2.0 5.0 0.00 0.00 0.00 55 1018.0
20260905180743 72 135 2.0 4.0 0.00 0.00 0.00 51 1017.8
20260905175903 73 149 1.0 6.0 0.00 0.00 0.00 48 1017.6
20260905174043 73 135 2.0 4.0 0.00 0.00 0.00 46 1016.9
20260905173201 74 0.0 2.0 0.00 0.00 0.00 43 1016.5
20260905172240 74 113 2.0 3.0 0.00 0.00 0.00 42 1016.3
20260905171339 75 135 2.0 4.0 0.00 0.00 0.00 38 1016.1
20260905170519 76 135 2.0 4.0 0.00 0.00 0.00 34 1016.1
20260905165539 77 135 2.0 9.0 0.00 0.00 0.00 34 1015.8
20260905164657 78 135 2.0 5.0 0.00 0.00 0.00 35 1015.5
20260905163818 78 135 3.0 7.0 0.00 0.00 0.00 36 1015.4
20260905162836 81 135 3.0 7.0 0.00 0.00 0.00 34 1014.8
20260905161036 85 135 3.0 7.0 0.00 0.00 0.00 28 1014.3
20260905160134 88 0.0 2.0 0.00 0.00 0.00 21 1013.5
20260905155233 88 0.0 2.0 0.00 0.00 0.00 19 1013.1
20260905154333 89 0.0 1.0 0.00 0.00 0.00 18 1013.0
20260905153402 89 0.0 2.0 0.00 0.00 0.00 16 1012.9
20260905152501 90 0.0 2.0 0.00 0.00 0.00 15 1012.6
20260905151600 91 0.0 2.0 0.00 0.00 0.00 13 1012.9
20260905150720 91 135 1.0 2.0 0.00 0.00 0.00 11 1012.7
20260905145759 92 135 2.0 2.0 0.00 0.00 0.00 11 1012.8
20260905144858 92 135 0.0 2.0 0.00 0.00 0.00 10 1013.0
20260905143057 92 113 2.0 6.0 0.00 0.00 0.00 1013.1
20260905142156 93 158 2.0 4.0 0.00 0.00 0.00 1013.1
20260905141255 93 158 2.0 4.0 0.00 0.00 0.00 1013.0
20260905140355 94 135 1.0 3.0 0.00 0.00 0.00 1013.1
20260905135514 95 0.0 2.0 0.00 0.00 0.00 1013.0
20260905134553 97 1.0 4.0 0.00 0.00 0.00 1013.1
20260905133653 98 113 2.0 5.0 0.00 0.00 0.00 1013.2
20260905132752 97 0.0 2.0 0.00 0.00 0.00 1013.4
20260905131851 97 135 1.0 5.0 0.00 0.00 0.00 1013.4
20260905130020 98 135 1.0 2.0 0.00 0.00 0.00 1013.4
20260905125121 98 135 2.0 8.0 0.00 0.00 0.00 1013.4
20260905124219 98 135 1.0 2.0 0.00 0.00 0.00 1013.6
20260905123320 98 135 2.0 3.0 0.00 0.00 0.00 1013.5
20260905122418 97 158 4.0 7.0 0.00 0.00 0.00 1013.5
20260905121517 97 0.0 1.0 0.00 0.00 0.00 1013.6
20260905120618 98 0.0 2.0 0.00 0.00 0.00 1013.7
20260905115736 98 0.0 3.0 0.00 0.00 0.00 1013.8
20260905114835 98 135 0.0 4.0 0.00 0.00 0.00 1014.0
20260905113914 98 135 1.0 3.0 0.00 0.00 0.00 1014.1
20260905112133 98 158 1.0 2.0 0.00 0.00 0.00 1014.0
20260905111212 98 158 2.0 5.0 0.00 0.00 0.00 1014.0
20260905110313 97 113 1.0 4.0 0.00 0.00 0.00 1014.2
20260905105411 99 158 2.0 4.0 0.00 0.00 0.00 1014.2
20260905104511 98 0.0 2.0 0.00 0.00 0.00 1014.4
20260905103611 98 1.0 2.0 0.00 0.00 0.00 1014.5
20260905102710 97 0.0 2.0 0.00 0.00 0.00 1014.5
20260905101810 98 158 2.0 4.0 0.00 0.00 0.00 1014.7
20260905100909 97 135 1.0 3.0 0.00 0.00 0.00 1014.7
20260905095107 96 135 2.0 6.0 0.00 0.00 0.00 1014.8
20260905094206 96 135 1.0 2.0 0.00 0.00 0.00 1014.9
20260905093305 95 158 2.0 4.0 0.00 0.00 0.00 1015.0
20260905092424 95 2.0 5.0 0.00 0.00 0.00 1015.1
20260905091524 95 135 2.0 4.0 0.00 0.00 0.00 11 1015.1
20260905090603 94 135 2.0 6.0 0.00 0.00 0.00 11 1015.2
20260905085723 94 0.0 3.0 0.00 0.00 0.00 14 1015.4
20260905084802 93 137 2.0 6.0 0.00 0.00 0.00 14 1015.5
20260905083922 91 135 1.0 2.0 0.00 0.00 0.00 19 1015.9
20260905082100 90 0.0 2.0 0.00 0.00 0.00 20 1015.9
20260905081220 88 135 1.0 3.0 0.00 0.00 0.00 23 1015.8
20260905080402 86 0.0 2.0 0.00 0.00 0.00 26 1015.9
20260905075358 85 1.0 3.0 0.00 0.00 0.00 28 1016.0
20260905074519 83 0.0 2.0 0.00 0.00 0.00 33 1016.0
20260905073617 82 158 1.0 2.0 0.00 0.00 0.00 34 1016.1
20260905072656 81 2.0 4.0 0.00 0.00 0.00 36 1016.1
20260905071755 81 135 3.0 6.0 0.00 0.00 0.00 37 1016.1
20260905070856 81 158 1.0 5.0 0.00 0.00 0.00 38 1016.1
20260905065053 80 0.0 2.0 0.00 0.00 0.00 42 1016.0
20260905064153 80 113 1.0 3.0 0.00 0.00 0.00 43 1016.0
20260905063314 80 0.0 2.0 0.00 0.00 0.00 47 1016.0
20260905062353 78 0.0 2.0 0.00 0.00 0.00 53 1016.0
20260905061511 76 135 2.0 3.0 0.00 0.00 0.00 56 1015.9